TimeCDT,TemperatureF,Dew PointF,Humidity,Sea Level PressureIn,VisibilityMPH,Wind Direction,Wind SpeedMPH,Gust SpeedMPH,PrecipitationIn,Events,Conditions,WindDirDegrees,DateUTC
12:55 AM,22.5,12.6,66,30.14,10.0,ENE,4.6,-,N/A,,Clear,70,2013-03-21 05:55:00
1:55 AM,20.7,11.7,68,30.14,10.0,East,5.8,-,N/A,,Clear,80,2013-03-21 06:55:00
2:55 AM,22.6,12.6,65,30.14,10.0,ENE,4.6,-,N/A,,Mostly Cloudy,70,2013-03-21 07:55:00
3:55 AM,22.3,13.3,68,30.12,10.0,ENE,6.9,-,N/A,,Mostly Cloudy,70,2013-03-21 08:55:00
4:55 AM,22.3,13.6,69,30.09,10.0,ENE,8.1,-,N/A,,Scattered Clouds,70,2013-03-21 09:55:00
5:55 AM,22.3,13.1,68,30.09,10.0,East,6.9,-,N/A,,Clear,80,2013-03-21 10:55:00
6:55 AM,21.6,13.6,72,30.09,10.0,East,9.2,-,N/A,,Overcast,90,2013-03-21 11:55:00
7:55 AM,21.2,12.6,69,30.09,10.0,East,11.5,-,N/A,,Overcast,90,2013-03-21 12:55:00
8:55 AM,22.6,12.9,66,30.10,10.0,ESE,9.2,-,N/A,,Mostly Cloudy,110,2013-03-21 13:55:00
9:55 AM,23.7,13.1,64,30.09,10.0,ESE,9.2,-,N/A,,Scattered Clouds,110,2013-03-21 14:55:00
10:55 AM,24.3,12.4,61,30.08,10.0,SE,9.2,-,N/A,,Clear,130,2013-03-21 15:55:00
11:55 AM,25.9,13.3,59,30.06,10.0,ESE,5.8,-,N/A,,Mostly Cloudy,110,2013-03-21 16:55:00
12:55 PM,28.4,13.6,54,30.04,10.0,ESE,6.9,-,N/A,,Scattered Clouds,110,2013-03-21 17:55:00
1:55 PM,29.3,12.4,49,30.01,10.0,East,6.9,-,N/A,,Overcast,100,2013-03-21 18:55:00
2:03 PM,30.2,12.2,47,30.01,10.0,East,5.8,-,N/A,,Overcast,100,2013-03-21 19:03:00
2:24 PM,30.2,12.2,47,30.00,10.0,East,8.1,-,N/A,,Overcast,90,2013-03-21 19:24:00
2:55 PM,30.0,11.5,46,29.99,10.0,East,6.9,-,N/A,,Overcast,80,2013-03-21 19:55:00
3:55 PM,31.5,9.5,40,29.97,10.0,ENE,6.9,-,N/A,,Overcast,70,2013-03-21 20:55:00
4:55 PM,32.0,9.0,38,29.96,10.0,East,9.2,-,N/A,,Overcast,80,2013-03-21 21:55:00
5:55 PM,32.9,11.1,40,29.96,10.0,East,10.4,-,N/A,,Overcast,80,2013-03-21 22:55:00
6:55 PM,32.9,12.4,43,29.97,10.0,East,6.9,-,N/A,,Overcast,80,2013-03-21 23:55:00
7:55 PM,32.4,13.1,45,29.99,10.0,ENE,3.5,-,N/A,,Overcast,60,2013-03-22 00:55:00
8:55 PM,32.0,14.7,49,29.99,10.0,ENE,5.8,-,N/A,,Overcast,60,2013-03-22 01:55:00
9:55 PM,32.2,16.3,52,30.01,10.0,ENE,6.9,-,N/A,,Overcast,60,2013-03-22 02:55:00
10:55 PM,32.7,17.4,53,30.02,10.0,ENE,4.6,-,N/A,,Overcast,60,2013-03-22 03:55:00
11:55 PM,32.4,17.8,55,30.03,10.0,East,5.8,-,N/A,,Overcast,80,2013-03-22 04:55:00